Flag for Cambodia Weather past 2 weeks in Battambang, Cambodia

86 °F

Scattered clouds.

Feels Like: 99 °F
Forecast: 77 / 88 °F
Wind: 7 mph from West

Location: Siemreap

Current Time: Oct 7, 2015 at 11:16:02 AM

Latest Report: Oct 7, 2015 at 10:30 AM

Visibility: N/A

Pressure: 29.89 "Hg

Humidity: 79%

Dew point: 79 °F

Location of BattambangLocation

Historic Weather in Battambang — Graph


Battambang temperature yesterday

Maximum temperature yesterday: 88 °F (at 4:00 PM)
Minimum temperature yesterday: 77 °F (at 12:00 AM)
Average temperature yesterday: 83 °F

Past Weeks' High & Low Weather Summary

High91 °F (Sep 22, 1:00 PM)100% (Sep 24, 9:00 PM)29.92 "Hg (Sep 24, 9:00 PM)
Low75 °F (Sep 27, 7:00 PM)56% (Sep 23, 2:30 PM)29.59 "Hg (Sep 25, 4:00 PM)
Average84 °F79%29.77 "Hg
* Reported Sep 22 9:00 AM — Oct 7 9:30 AM, Battambang, Weather by CustomWeather, © 2015

Note: Actual official high and low records may vary slightly from our data, if they occured in-between our weather recording intervals... More about our weather records


Battambang weather history for previous 24 hours

Time TempWeatherWind HumidityBarometerVisibility
9:30 AM
Wed, Oct 7
86 °FScattered clouds.7 mph75%29.89 "HgN/A
9:00 AM84 °FScattered clouds.6 mph79%29.89 "HgN/A
8:30 AM84 °FScattered clouds.3 mph79%29.89 "Hg6 mi
8:00 AM82 °FScattered clouds.No wind94%29.86 "Hg5 mi
7:30 AM82 °FScattered clouds.No wind94%29.86 "Hg5 mi
7:00 AM81 °FFog.No wind100%29.83 "Hg3 mi
1:00 AM82 °FPassing clouds.No wind84%29.83 "Hg6 mi
12:30 AM81 °FPassing clouds.No wind94%29.83 "Hg6 mi
12:00 AM82 °FPassing clouds.No wind84%29.86 "Hg6 mi
11:30 PM
Tue, Oct 6
82 °FPassing clouds.No wind84%29.86 "Hg6 mi
11:00 PM82 °FPassing clouds.No wind84%29.86 "Hg6 mi
10:30 PM82 °FPassing clouds.1 mph84%29.86 "Hg6 mi
10:00 PM82 °FPassing clouds.2 mph84%29.86 "Hg6 mi
9:30 PM82 °FPassing clouds.3 mph84%29.86 "Hg6 mi
9:00 PM82 °FPassing clouds.3 mph84%29.86 "Hg6 mi
8:30 PM82 °FPassing clouds.3 mph84%29.86 "Hg6 mi
8:00 PM82 °FPassing clouds.3 mph84%29.83 "Hg6 mi
7:30 PM82 °FPassing clouds.3 mph84%29.83 "Hg6 mi
7:00 PM84 °FPassing clouds.2 mph74%29.80 "Hg6 mi
6:30 PM84 °FPassing clouds.2 mph74%29.80 "Hg6 mi
6:00 PM84 °FPassing clouds.1 mph74%29.77 "Hg6 mi
5:30 PM86 °FScattered clouds.3 mph70%29.77 "Hg6 mi
5:00 PM86 °FScattered clouds.3 mph70%29.77 "Hg6 mi
4:30 PM86 °FScattered clouds.3 mph70%29.77 "Hg6 mi
4:00 PM88 °FBroken clouds.2 mph70%29.77 "Hg6 mi
3:30 PM86 °FBroken clouds.1 mph70%29.77 "Hg6 mi
3:00 PM86 °FBroken clouds.2 mph70%29.77 "Hg6 mi
2:30 PM86 °FBroken clouds.3 mph70%29.80 "Hg6 mi
2:00 PM86 °FBroken clouds.3 mph70%29.80 "Hg6 mi
1:30 PM84 °FBroken clouds.3 mph74%29.83 "Hg6 mi
1:00 PM84 °FBroken clouds.2 mph74%29.83 "Hg6 mi
12:30 PM86 °FBroken clouds.2 mph70%29.86 "Hg6 mi
12:00 PM86 °FBroken clouds.2 mph70%29.86 "Hg6 mi
11:30 AM86 °FBroken clouds.2 mph70%29.89 "Hg6 mi
11:00 AM84 °FBroken clouds.3 mph74%29.89 "Hg6 mi
Weather by CustomWeather, © 2015

See weather overviewHow to use our weather pages